This is the latest recevied weather packets stored in our database for station/object WX7FGZ-7. If no packets are shown the sender has not sent any weather packets the latest 10 day(s).
| Time | Temp. | Humidity | Pressure | Rain* | Wind** | Luminosity | Snow |
|---|---|---|---|---|---|---|---|
| 1778095141 | 23.33° C | 23% | 1017.4 hPa | 0 mm | - | - | - |
| 1778095006 | 23.33° C | 23% | 1017.4 hPa | 0 mm | - | - | - |
| 1778094877 | 23.33° C | 25% | 1017.5 hPa | 0 mm | - | - | - |
| 1778094708 | 23.33° C | 25% | 1017.5 hPa | 0 mm | - | - | - |
| 1778093806 | 22.78° C | 25% | 1017.6 hPa | 0 mm | - | - | - |
| 1778093706 | 22.78° C | 26% | 1017.7 hPa | 0 mm | - | - | - |
| 1778093506 | 22.78° C | 26% | 1017.7 hPa | 0 mm | - | - | - |
| 1778092909 | 22.22° C | 26% | 1017.8 hPa | 0 mm | - | - | - |
| 1778092155 | 21.11° C | 27% | 1017.8 hPa | 0 mm | - | - | - |
| 1778092006 | 21.11° C | 27% | 1017.8 hPa | 0 mm | - | - | - |
| 1778091108 | 21.67° C | 27% | 1017.9 hPa | 0 mm | - | - | - |
| 1778090758 | 21.67° C | 28% | 1018.2 hPa | 0 mm | - | - | - |
| 1778090639 | 21.67° C | 28% | 1018.2 hPa | 0 mm | - | - | - |
| 1778090493 | 21.11° C | 29% | 1018.2 hPa | 0 mm | - | - | - |
| 1778090333 | 21.11° C | 29% | 1018.2 hPa | 0 mm | - | - | - |
| 1778090253 | 20.56° C | 28% | 1018.3 hPa | 0 mm | - | - | - |
| 1778090041 | 20.56° C | 28% | 1018.3 hPa | 0 mm | - | - | - |
| 1778089927 | 20.56° C | 30% | 1018.1 hPa | 0 mm | - | - | - |
| 1778089733 | 20.56° C | 30% | 1018.1 hPa | 0 mm | - | - | - |
| 1778089340 | 21.11° C | 27% | 1018.4 hPa | 0 mm | - | - | - |
| 1778089164 | 21.11° C | 27% | 1018.4 hPa | 0 mm | - | - | - |
| 1778089019 | 20.56° C | 29% | 1018.2 hPa | 0 mm | - | - | - |
| 1778088834 | 20.56° C | 29% | 1018.2 hPa | 0 mm | - | - | - |
| 1778088711 | 20.56° C | 30% | 1018.2 hPa | 0 mm | - | - | - |
| 1778088554 | 20.56° C | 30% | 1018.2 hPa | 0 mm | - | - | - |
* Rain latest hour (hover to see other rain measurements)
** Current wind speed in m/s (hover to see current wind gust speed)